• In Latvia
  • List of Countries
  • For 7 days
  • Water Temperature
  • Satellite Maps
  • Weather Map
  • Weather Widgets
  • user-avatar
    Login

    Hourly Weather Malanje

    Today, 19 September, Wednesday

    Time Temperature Precipitation Wind Pressure Humidity
    00:00 +25°C° 0 mm 2 mps 665 mmHg 57%
    01:00 +24°C° 0 mm 2 mps 665 mmHg 64%
    02:00 +24°C° 0 mm 2 mps 665 mmHg 67%
    03:00 +23°C° 0 mm 2 mps 665 mmHg 69%
    04:00 +23°C° 0 mm 2 mps 664 mmHg 72%
    05:00 +23°C° 0 mm 2 mps 665 mmHg 71%
    06:00 +23°C° 0 mm 2 mps 665 mmHg 71%
    07:00 +23°C° 0 mm 2 mps 665 mmHg 70%
    08:00 +26°C° 0 mm 2 mps 666 mmHg 58%
    09:00 +30°C° 0 mm 2 mps 666 mmHg 47%
    10:00 +34°C° 0 mm 2 mps 667 mmHg 35%
    11:00 +36°C° 0 mm 2 mps 667 mmHg 29%
    12:00 +37°C° 0 mm 1 mps 667 mmHg 24%
    13:00 +40°C° 0 mm 1 mps 666 mmHg 19%
    14:00 +39°C° 0 mm 1 mps 666 mmHg 20%
    15:00 +36°C° 0 mm 1 mps 665 mmHg 21%
    16:00 +35°C° 0 mm 1 mps 664 mmHg 23%
    17:00 +34°C° 0 mm 1 mps 664 mmHg 25%
    18:00 +32°C° 0 mm 1 mps 664 mmHg 28%
    19:00 +31°C° 0 mm 2 mps 664 mmHg 31%
    20:00 +30°C° 0 mm 2 mps 664 mmHg 35%
    21:00 +28°C° 0 mm 3 mps 665 mmHg 39%
    22:00 +27°C° 0 mm 3 mps 665 mmHg 44%
    23:00 +26°C° 0 mm 3 mps 665 mmHg 48%

    Tomorrow, 20 September, Thursday

    Time Temperature Precipitation Wind Pressure Humidity
    00:00 +25°C° 0 mm 3 mps 664 mmHg 53%
    01:00 +24°C° 0 mm 3 mps 664 mmHg 58%
    02:00 +23°C° 0 mm 2 mps 664 mmHg 62%
    03:00 +23°C° 0 mm 2 mps 664 mmHg 67%
    04:00 +21°C° 0 mm 2 mps 663 mmHg 71%
    05:00 +21°C° 0 mm 2 mps 664 mmHg 71%
    06:00 +21°C° 0 mm 2 mps 664 mmHg 71%
    07:00 +21°C° 0 mm 2 mps 665 mmHg 71%
    08:00 +26°C° 0 mm 2 mps 665 mmHg 58%
    09:00 +29°C° 0 mm 2 mps 666 mmHg 46%
    10:00 +34°C° 0 mm 2 mps 667 mmHg 33%
    11:00 +35°C° 0 mm 2 mps 667 mmHg 29%
    12:00 +37°C° 0 mm 2 mps 666 mmHg 25%
    13:00 +39°C° 0 mm 2 mps 666 mmHg 21%
    14:00 +38°C° 0 mm 2 mps 665 mmHg 22%
    15:00 +36°C° 0 mm 1 mps 664 mmHg 23%
    16:00 +35°C° 0 mm 1 mps 664 mmHg 24%
    17:00 +33°C° 0.1 mm 1 mps 664 mmHg 27%
    18:00 +32°C° 0.1 mm 1 mps 664 mmHg 29%
    19:00 +31°C° 0.1 mm 2 mps 664 mmHg 32%
    20:00 +30°C° 0 mm 2 mps 665 mmHg 36%
    21:00 +28°C° 0 mm 2 mps 665 mmHg 40%
    22:00 +27°C° 0 mm 3 mps 665 mmHg 44%
    23:00 +26°C° 0 mm 3 mps 665 mmHg 50%

    Day after tomorrow, 21 September, Friday

    Time Temperature Precipitation Wind Pressure Humidity
    00:00 +25°C° 0 mm 3 mps 664 mmHg 56%
    01:00 +24°C° 0 mm 3 mps 664 mmHg 63%
    02:00 +22°C° 0 mm 3 mps 664 mmHg 67%
    03:00 +21°C° 0 mm 3 mps 663 mmHg 71%
    04:00 +20°C° 0 mm 2 mps 663 mmHg 75%
    05:00 +20°C° 0 mm 2 mps 663 mmHg 74%
    06:00 +20°C° 0 mm 2 mps 664 mmHg 74%
    07:00 +21°C° 0 mm 2 mps 664 mmHg 73%
    08:00 +25°C° 0 mm 2 mps 665 mmHg 61%
    09:00 +28°C° 0 mm 2 mps 666 mmHg 48%
    10:00 +32°C° 0 mm 2 mps 667 mmHg 35%
    11:00 +35°C° 0 mm 2 mps 666 mmHg 31%
    12:00 +37°C° 0 mm 2 mps 666 mmHg 26%
    13:00 +39°C° 0 mm 2 mps 665 mmHg 21%
    14:00 +38°C° 0 mm 2 mps 665 mmHg 22%
    15:00 +36°C° 0 mm 2 mps 664 mmHg 23%
    16:00 +35°C° 0 mm 2 mps 663 mmHg 24%
    17:00 +34°C° 0 mm 2 mps 664 mmHg 27%
    18:00 +32°C° 0 mm 2 mps 664 mmHg 29%
    19:00 +31°C° 0 mm 2 mps 664 mmHg 32%
    20:00 +29°C° 0 mm 2 mps 665 mmHg 35%
    21:00 +28°C° 0 mm 2 mps 665 mmHg 39%
    22:00 +27°C° 0 mm 2 mps 665 mmHg 42%
    23:00 +26°C° 0 mm 2 mps 665 mmHg 47%

    22 September, Saturday

    Time Temperature Precipitation Wind Pressure Humidity
    00:00 +25°C° 0 mm 2 mps 664 mmHg 51%
    01:00 +24°C° 0 mm 2 mps 664 mmHg 55%
    02:00 +23°C° 0 mm 2 mps 664 mmHg 61%
    03:00 +23°C° 0 mm 2 mps 663 mmHg 66%
    04:00 +21°C° 0 mm 2 mps 663 mmHg 72%
    05:00 +21°C° 0 mm 2 mps 663 mmHg 71%
    06:00 +21°C° 0 mm 2 mps 664 mmHg 71%
    07:00 +21°C° 0 mm 2 mps 664 mmHg 70%
    08:00 +26°C° 0 mm 2 mps 665 mmHg 58%
    09:00 +29°C° 0 mm 2 mps 666 mmHg 46%
    10:00 +32°C° 0 mm 2 mps 667 mmHg 34%
    11:00 +35°C° 0 mm 2 mps 666 mmHg 29%
    12:00 +37°C° 0 mm 2 mps 666 mmHg 25%
    13:00 +39°C° 0 mm 2 mps 665 mmHg 20%
    14:00 +38°C° 0 mm 2 mps 664 mmHg 22%
    15:00 +37°C° 0 mm 2 mps 664 mmHg 23%
    16:00 +35°C° 0 mm 2 mps 663 mmHg 25%
    17:00 +34°C° 0 mm 3 mps 664 mmHg 29%
    18:00 +31°C° 0 mm 3 mps 664 mmHg 33%
    19:00 +30°C° 0 mm 3 mps 665 mmHg 37%
    20:00 +28°C° 0.1 mm 3 mps 665 mmHg 41%
    21:00 +27°C° 0.1 mm 3 mps 665 mmHg 46%
    22:00 +26°C° 0.1 mm 3 mps 665 mmHg 51%
    23:00 +25°C° 0.2 mm 3 mps 665 mmHg 56%

    23 September, Sunday

    Time Temperature Precipitation Wind Pressure Humidity
    00:00 +24°C° 0.2 mm 3 mps 664 mmHg 61%
    01:00 +22°C° 0.2 mm 4 mps 664 mmHg 67%
    02:00 +21°C° 0 mm 3 mps 663 mmHg 69%
    03:00 +20°C° 0 mm 3 mps 663 mmHg 72%
    04:00 +20°C° 0 mm 3 mps 663 mmHg 74%
    05:00 +20°C° 0 mm 3 mps 663 mmHg 72%
    06:00 +20°C° 0 mm 3 mps 664 mmHg 70%
    07:00 +21°C° 0 mm 3 mps 665 mmHg 67%
    08:00 +25°C° 0 mm 2 mps 666 mmHg 56%
    09:00 +28°C° 0 mm 2 mps 666 mmHg 44%
    10:00 +32°C° 0 mm 2 mps 667 mmHg 33%
    11:00 +35°C° 0 mm 2 mps 667 mmHg 29%
    12:00 +37°C° 0 mm 1 mps 666 mmHg 24%
    13:00 +40°C° 0 mm 1 mps 666 mmHg 20%
    14:00 +37°C° 0 mm 1 mps 665 mmHg 22%
    15:00 +36°C° 0 mm 2 mps 665 mmHg 25%
    16:00 +34°C° 0 mm 2 mps 664 mmHg 27%
    17:00 +32°C° 0.1 mm 2 mps 664 mmHg 32%
    18:00 +30°C° 0.1 mm 3 mps 664 mmHg 36%
    19:00 +28°C° 0.1 mm 4 mps 665 mmHg 41%
    20:00 +27°C° 0.1 mm 3 mps 665 mmHg 43%
    21:00 +26°C° 0.1 mm 3 mps 665 mmHg 46%
    22:00 +25°C° 0.1 mm 2 mps 665 mmHg 48%
    23:00 +25°C° 0.1 mm 3 mps 665 mmHg 51%

    24 September, Monday

    Time Temperature Precipitation Wind Pressure Humidity
    00:00 +24°C° 0.1 mm 3 mps 664 mmHg 54%
    01:00 +22°C° 0.1 mm 4 mps 664 mmHg 57%
    02:00 +21°C° 0 mm 3 mps 664 mmHg 60%
    03:00 +21°C° 0 mm 3 mps 664 mmHg 62%
    04:00 +20°C° 0 mm 3 mps 664 mmHg 65%
    05:00 +20°C° 0 mm 3 mps 664 mmHg 64%
    06:00 +20°C° 0 mm 3 mps 665 mmHg 64%
    07:00 +20°C° 0 mm 2 mps 665 mmHg 63%
    08:00 +25°C° 0 mm 2 mps 666 mmHg 53%
    09:00 +28°C° 0 mm 2 mps 667 mmHg 43%
    10:00 +31°C° 0 mm 2 mps 667 mmHg 32%
    11:00 +34°C° 0 mm 2 mps 667 mmHg 29%
    12:00 +36°C° 0 mm 2 mps 666 mmHg 26%
    13:00 +38°C° 0 mm 2 mps 665 mmHg 23%
    14:00 +37°C° 0 mm 2 mps 665 mmHg 23%
    15:00 +36°C° 0 mm 2 mps 664 mmHg 24%
    16:00 +35°C° 0 mm 2 mps 664 mmHg 25%
    17:00 +34°C° 0 mm 3 mps 664 mmHg 28%
    18:00 +31°C° 0 mm 3 mps 664 mmHg 31%
    19:00 +30°C° 0 mm 4 mps 664 mmHg 35%
    20:00 +28°C° 0 mm 4 mps 664 mmHg 39%
    21:00 +27°C° 0 mm 4 mps 665 mmHg 43%
    22:00 +25°C° 0 mm 4 mps 665 mmHg 47%
    23:00 +23°C° 0 mm 4 mps 664 mmHg 53%
    Show more